Back to catalog

STARLINK-31084

AliveCommunicationsVLEO
NORAD 58630·PAYLOAD·🇺🇸 United States

Launched Dec 23, 2023 from Cape Canaveral Space Force Station

Loading…

Next Passes (next 24 hours)

TLE

FreshSource: CelesTrak SupGP

Epoch: Sep 14, 2026, 13:39 UTC

1 58630C 23203N   26257.56923611  .00001564  00000+0  56664-4 0  2570
2 58630  42.9999  83.9943 0001302 261.2264 192.5750 15.27562641    10

Track STARLINK-31084 in real time with AllMySat

Download on the App Store